Weather History for KBTM - August, 2014

Change the Weather History Date:

Monday, August 18, 2014

  Actual Average Record
Temperature  
Mean Temperature 63 °F 62 °F  
Max Temperature 81 °F 80 °F 93 °F (1977)
Min Temperature 44 °F 44 °F 31 °F (1995)
Degree Days  
Heating Degree Days 2 4  
Month to date heating degree days 22 52  
Since 1 June heating degree days 410 439  
Since 1 July heating degree days 57 152  
Cooling Degree Days 0 1  
Month to date cooling degree days 16 20  
Year to date cooling degree days 77 71  
Since 1 June cooling degree days 77 71  
Growing Degree Days 13 (Base 50)    
Moisture  
Dew Point 43 °F    
Average Humidity 57    
Maximum Humidity 92    
Minimum Humidity 21    
Precipitation  
Precipitation 0.00 in 0.04 in 0.47 in (1990)
Month to date precipitation 1.53 0.79  
Year to date precipitation 9.93 9.31  
Sea Level Pressure  
Sea Level Pressure 29.98 in    
Wind  
Wind Speed 5 mph (ESE)    
Max Wind Speed 13 mph    
Max Gust Speed 18 mph    
Visibility 10 miles    
Events      
T = Trace of Precipitation, MM = Missing Value Source: NWS Daily Summary

Daily Weather History Graph

Daily Weather History Graph

Search for Another Location

Airport or City:

Trip Planner

Search our weather history database for the weather conditions in past years. The results will help you decide how hot, cold, wet, or windy it might be!

Date:

Astronomy

Aug. 18, 2014 Rise Set
Actual Time 6:33 AM MDT 8:33 PM MDT
Civil Twilight 6:01 AM MDT 9:05 PM MDT
Nautical Twilight 5:21 AM MDT 9:44 PM MDT
Astronomical Twilight 4:37 AM MDT 10:28 PM MDT
Moon 12:39 AM MDT (8/18) 3:45 PM MDT (8/18)
Length of Visible Light 15h 04m
Length of Day
13h 59m
Last Quarter, 38% of the Moon is Illuminated
Aug 18
Last Quarter
Aug 25
New
Sep 2
First Quarter
Sep 8
Full
Sep 15
Last Quarter

Hourly Weather History & Observations

Time (MDT) Temp. Windchill Dew Point Humidity Pressure Visibility Wind Dir Wind Speed Gust Speed Precip Events Conditions
12:53 AM 53.6 °F - 44.6 °F 72% 30.21 in 10.0 mi SE 4.6 mph - N/A   Clear
1:53 AM 51.1 °F - 44.1 °F 77% 30.08 in 10.0 mi SSE 4.6 mph - N/A   Clear
2:53 AM 51.1 °F - 44.1 °F 77% 30.06 in 10.0 mi SSE 3.5 mph - N/A   Clear
3:53 AM 48.0 °F - 43.0 °F 83% 30.07 in 10.0 mi SE 5.8 mph - N/A   Clear
4:53 AM 46.0 °F 43.9 °F 43.0 °F 89% 30.06 in 10.0 mi SSE 4.6 mph - N/A   Clear
5:53 AM 46.0 °F 44.8 °F 43.0 °F 89% 30.06 in 10.0 mi South 3.5 mph - N/A   Clear
6:53 AM 45.0 °F 43.5 °F 42.1 °F 90% 30.06 in 10.0 mi East 3.5 mph - N/A   Clear
7:53 AM 48.0 °F - 43.0 °F 83% 30.06 in 10.0 mi Calm Calm - N/A   Clear
8:53 AM 53.1 °F - 45.0 °F 74% 30.05 in 10.0 mi Calm Calm - N/A   Clear
9:53 AM 61.0 °F - 46.9 °F 60% 30.03 in 10.0 mi Calm Calm - N/A   Clear
10:53 AM 66.9 °F - 46.9 °F 49% 30.02 in 10.0 mi North 3.5 mph - N/A   Clear
11:53 AM 72.0 °F - 46.0 °F 40% 30.00 in 10.0 mi North 4.6 mph - N/A   Clear
12:53 PM 75.9 °F - 45.0 °F 33% 29.96 in 10.0 mi North 9.2 mph - N/A   Clear
1:53 PM 75.9 °F - 43.0 °F 31% 29.94 in 10.0 mi Variable 3.5 mph - N/A   Clear
2:53 PM 78.1 °F - 42.1 °F 28% 29.91 in 10.0 mi Variable 3.5 mph - N/A   Clear
3:53 PM 81.0 °F - 37.9 °F 21% 29.89 in 10.0 mi NNW 10.4 mph - N/A   Clear
4:53 PM 80.1 °F - 37.9 °F 22% 29.89 in 10.0 mi NW 9.2 mph - N/A   Clear
5:53 PM 80.1 °F - 39.0 °F 23% 29.88 in 10.0 mi WNW 6.9 mph - N/A   Clear
6:53 PM 79.0 °F - 37.9 °F 23% 29.87 in 10.0 mi NNW 10.4 mph - N/A   Clear
7:53 PM 75.9 °F - 37.9 °F 25% 29.87 in 10.0 mi NW 9.2 mph - N/A   Clear
8:53 PM 72.0 °F - 41.0 °F 33% 29.88 in 10.0 mi Calm Calm - N/A   Clear
9:53 PM 62.6 °F - 44.6 °F 52% 30.03 in 10.0 mi SE 9.2 mph - N/A   Clear
10:53 PM 57.9 °F - 43.0 °F 58% 29.88 in 10.0 mi SSE 8.1 mph - N/A   Clear
11:53 PM 55.9 °F - 43.0 °F 62% 29.86 in 10.0 mi SE 4.6 mph - N/A   Clear